Hourly Data Report for May 14, 2021

MANIWAKI AIRPORT
QUEBEC
Current Station Operator: ECCC - MSC

46°16'29.000" N
75°59'31.000" W
199.70 m
7034482
71721
WMJ

Download Data

Hourly Data (May 2021)
Hourly Data Report for May 14, 2021
TIME
LST
Temp Definition
°C
Dew Point Definition
°C
Rel Hum Definition
%
Precip. Amount Definition
mm

Wind Dir Definition
10's deg

Wind Spd Definition
km/h
Visibility Definition
km
Stn Press Definition
kPa
Hmdx Definition


Wind Chill Definition


Weather Definition


00:00 13.0 3.6 53 0.0 28 11   99.69     LegendNANA
01:00 8.8 4.4 74 0.0   0   99.69     LegendNANA
02:00 7.0 4.0 81 0.0 0 1   99.68     LegendNANA
03:00 6.2 3.9 86 0.0 8 1   99.69     LegendNANA
04:00 4.6 3.4 91 0.0   0   99.69     LegendNANA
05:00 4.5 2.7 88 0.0 21 2   99.72     LegendNANA
06:00 7.6 4.5 81 0.0 19 1   99.77     LegendNANA
07:00 11.3 5.6 68 0.0 18 1   99.79     LegendNANA
08:00 14.5 2.3 44 0.0 19 7   99.80     LegendNANA
09:00 16.6 1.5 36 0.0 20 6   99.78     LegendNANA
10:00 19.8 1.3 29 0.0 20 7   99.74     LegendNANA
11:00 20.3 -2.1 22 0.0 27 14   99.68     LegendNANA
12:00 23.0 -0.6 21 0.0 29 10   99.61     LegendNANA
13:00 22.5 -1.1 21 0.0 24 9   99.57     LegendNANA
14:00 21.4 -2.6 20 0.0 25 14   99.53     LegendNANA
15:00 22.5 -3.6 17 0.0 27 14   99.49     LegendNANA
16:00 21.1 -1.4 22 0.0 24 6   99.47     LegendNANA
17:00 21.8 -3.4 18 0.0 26 12   99.46     LegendNANA
18:00 21.8 -3.2 18 0.0 27 12   99.44     LegendNANA
19:00 17.8 1.0 32 0.0 30 3   99.48     LegendNANA
20:00 14.9 2.3 42 0.0 23 3   99.51     LegendNANA
21:00 11.6 3.3 57 0.0 1 2   99.54     LegendNANA
22:00 11.0 3.7 61 0.0 22 3   99.55     LegendNANA
23:00 11.2 2.8 56 0.0 23 3   99.54     LegendNANA

Notes on Data Quality.

Legend

  • E = Estimated
  • M = Missing
  • NA = Not Available*
  • [empty] = Indicates an unobserved value
Date modified: